GEFSMA_prec_meanprecacc_168.txt.gz
Total_Precipitation_Accumulation
1.68 1.85 1.88 1.96 1.87 1.97 1.89 1.72 1.46 1.34 1.26 1.10 1.08 1.09 1.02 0.97 1.01 1.09 1.27 1.33 1.27 1.42 1.69 1.83 1.69 1.56 1.52 1.48 1.43 1.34 1.27 1.18 1.09 0.96 0.83 0.75 0.69 0.67 0.67 0.68 0.66 0.63 0.59
1.97 2.07 2.13 2.18 2.05 2.05 2.08 1.98 1.71 1.58 1.51 1.38 1.23 1.14 1.09 1.18 1.20 1.15 1.33 1.42 1.34 1.31 1.53 1.86 1.99 2.04 2.06 2.06 1.88 1.65 1.53 1.43 1.36 1.25 1.11 0.97 0.87 0.81 0.77 0.77 0.77 0.73 0.68
2.31 2.29 2.46 2.50 2.33 2.26 2.24 2.16 2.04 1.83 1.76 1.71 1.63 1.47 1.35 1.35 1.48 1.52 1.54 1.66 1.68 1.56 1.59 1.79 1.99 2.12 2.21 2.32 2.19 1.99 1.81 1.71 1.66 1.56 1.44 1.27 1.11 0.99 0.93 0.89 0.87 0.83 0.75
2.69 2.79 2.72 2.58 2.48 2.42 2.42 2.49 2.34 2.11 2.04 2.11 2.02 1.77 1.53 1.52 1.62 1.67 1.65 1.74 1.87 1.78 1.77 1.68 1.76 1.91 2.08 2.27 2.29 2.30 2.21 2.12 2.00 1.88 1.77 1.64 1.45 1.28 1.18 1.11 1.04 0.96 0.87
3.01 3.10 3.11 2.92 2.71 2.61 2.62 2.47 2.48 2.39 2.38 2.35 2.05 1.83 1.58 1.52 1.59 1.60 1.63 1.71 1.88 1.95 1.95 1.77 1.79 1.97 2.10 2.26 2.41 2.52 2.58 2.56 2.40 2.29 2.14 2.04 1.92 1.69 1.48 1.33 1.21 1.14 1.08
3.45 3.46 3.35 3.17 3.01 2.88 2.82 2.73 2.69 2.68 2.52 2.36 1.98 1.79 1.60 1.46 1.47 1.53 1.56 1.62 1.66 1.71 1.77 1.78 1.83 1.78 1.88 2.05 2.27 2.49 2.65 2.75 2.64 2.43 2.29 2.24 2.17 2.02 1.86 1.70 1.54 1.44 1.35
3.85 3.81 3.71 3.55 3.37 3.15 2.99 2.85 2.73 2.63 2.44 2.27 2.09 1.91 1.64 1.40 1.41 1.44 1.40 1.45 1.52 1.52 1.56 1.60 1.75 1.74 1.66 1.81 1.89 2.17 2.43 2.67 2.78 2.70 2.60 2.55 2.49 2.33 2.16 1.99 1.85 1.73 1.62
4.33 4.20 4.10 3.89 3.65 3.42 3.18 2.97 2.75 2.54 2.35 2.19 2.13 2.17 1.94 1.69 1.36 1.17 1.17 1.19 1.23 1.23 1.28 1.34 1.37 1.42 1.42 1.50 1.56 1.72 1.96 2.15 2.36 2.48 2.53 2.52 2.50 2.42 2.32 2.20 2.08 2.01 1.99
4.40 4.08 3.86 3.79 3.58 3.25 3.03 2.87 2.67 2.48 2.26 2.10 2.00 2.11 2.07 1.88 1.57 1.36 1.15 1.05 1.05 1.11 1.14 1.21 1.24 1.19 1.16 1.17 1.25 1.41 1.51 1.58 1.82 2.04 2.19 2.22 2.18 2.14 2.14 2.18 2.18 2.13 2.09
4.10 3.80 3.53 3.26 3.03 2.77 2.55 2.40 2.31 2.25 2.16 2.01 1.93 1.75 1.58 1.48 1.52 1.42 1.25 1.13 1.07 1.08 1.04 0.99 1.01 1.04 1.02 1.03 1.13 1.25 1.32 1.41 1.59 1.71 1.83 1.88 1.88 1.88 1.86 1.83 1.86 1.89 1.96
3.35 3.06 2.79 2.52 2.29 2.11 1.95 1.78 1.73 1.85 1.94 1.93 1.91 1.84 1.69 1.53 1.44 1.38 1.31 1.25 1.17 1.13 1.07 1.01 0.95 0.93 0.90 0.89 0.93 1.10 1.21 1.24 1.31 1.37 1.46 1.52 1.53 1.60 1.66 1.65 1.64 1.70 1.82
2.60 2.34 2.09 1.89 1.70 1.54 1.44 1.37 1.36 1.41 1.53 1.61 1.66 1.68 1.68 1.70 1.67 1.58 1.47 1.41 1.35 1.26 1.16 1.10 1.05 1.02 0.98 0.95 1.00 1.20 1.13 1.14 1.17 1.15 1.14 1.19 1.22 1.26 1.37 1.48 1.55 1.65 1.80
1.84 1.64 1.46 1.33 1.18 1.11 1.08 1.05 1.07 1.15 1.19 1.24 1.33 1.43 1.47 1.48 1.51 1.59 1.64 1.55 1.40 1.23 1.11 1.06 1.03 1.01 0.98 0.97 0.98 1.05 0.95 0.96 0.98 0.98 0.97 1.00 1.05 1.08 1.12 1.18 1.26 1.35 1.46
1.10 0.98 0.90 0.84 0.80 0.80 0.77 0.77 0.81 0.88 0.93 0.96 0.99 1.10 1.22 1.22 1.18 1.25 1.38 1.38 1.36 1.25 1.07 1.00 0.94 0.91 0.87 0.81 0.88 0.89 0.81 0.89 0.86 0.83 0.80 0.77 0.77 0.80 0.84 0.88 0.94 0.99 1.04
0.76 0.68 0.63 0.62 0.59 0.60 0.60 0.59 0.58 0.59 0.66 0.76 0.79 0.83 0.91 0.94 0.90 0.90 0.96 1.04 1.14 1.18 1.06 0.87 0.81 0.79 0.75 0.72 0.79 0.66 0.70 0.80 0.75 0.72 0.69 0.66 0.65 0.66 0.67 0.68 0.67 0.70 0.75
0.54 0.49 0.43 0.40 0.37 0.37 0.41 0.46 0.47 0.44 0.47 0.52 0.55 0.57 0.62 0.66 0.67 0.69 0.75 0.83 0.92 1.02 1.03 0.80 0.68 0.66 0.62 0.56 0.64 0.57 0.60 0.63 0.56 0.54 0.51 0.49 0.48 0.49 0.50 0.52 0.54 0.54 0.56
0.35 0.33 0.30 0.28 0.27 0.27 0.30 0.35 0.38 0.38 0.41 0.42 0.42 0.43 0.46 0.49 0.55 0.53 0.56 0.62 0.68 0.78 0.87 0.75 0.61 0.56 0.55 0.54 0.55 0.53 0.49 0.44 0.41 0.41 0.39 0.39 0.38 0.37 0.38 0.39 0.41 0.43 0.44
0.26 0.25 0.24 0.24 0.22 0.23 0.28 0.32 0.32 0.32 0.37 0.40 0.39 0.38 0.40 0.43 0.47 0.45 0.47 0.50 0.55 0.63 0.73 0.75 0.63 0.53 0.49 0.48 0.47 0.45 0.35 0.32 0.33 0.36 0.32 0.31 0.32 0.33 0.33 0.33 0.32 0.31 0.30
0.23 0.20 0.19 0.20 0.20 0.20 0.23 0.25 0.26 0.30 0.33 0.36 0.33 0.32 0.35 0.36 0.39 0.38 0.40 0.42 0.45 0.50 0.59 0.63 0.54 0.45 0.40 0.36 0.41 0.41 0.36 0.41 0.27 0.23 0.22 0.21 0.22 0.22 0.22 0.21 0.21 0.20 0.18
0.21 0.19 0.18 0.19 0.19 0.17 0.17 0.18 0.19 0.23 0.28 0.28 0.26 0.27 0.30 0.29 0.31 0.34 0.35 0.39 0.44 0.49 0.53 0.55 0.48 0.39 0.36 0.33 0.43 0.52 0.48 0.40 0.31 0.18 0.19 0.16 0.16 0.15 0.17 0.21 0.17 0.16 0.16
0.24 0.23 0.21 0.20 0.18 0.15 0.12 0.13 0.16 0.17 0.23 0.24 0.23 0.23 0.23 0.23 0.25 0.28 0.30 0.36 0.44 0.53 0.55 0.59 0.53 0.46 0.42 0.48 0.55 0.53 0.50 0.39 0.31 0.23 0.27 0.25 0.29 0.43 0.63 0.68 0.47 0.26 0.19
0.24 0.23 0.23 0.21 0.18 0.15 0.15 0.16 0.15 0.19 0.21 0.24 0.25 0.23 0.20 0.18 0.18 0.20 0.23 0.28 0.39 0.51 0.61 0.68 0.63 0.60 0.56 0.61 0.66 0.63 0.64 0.60 0.52 0.33 0.35 0.34 0.42 0.80 1.18 1.38 0.97 0.44 0.30
0.25 0.22 0.18 0.19 0.21 0.17 0.15 0.16 0.15 0.18 0.22 0.28 0.31 0.29 0.23 0.19 0.25 0.28 0.24 0.21 0.27 0.35 0.53 0.72 0.79 0.72 0.68 0.74 0.83 0.80 0.76 0.75 0.68 0.48 0.52 0.55 0.60 0.92 1.01 1.12 1.07 0.68 0.53
0.26 0.25 0.21 0.20 0.22 0.18 0.16 0.17 0.17 0.22 0.25 0.26 0.28 0.28 0.33 0.33 0.27 0.26 0.24 0.28 0.36 0.46 0.53 0.60 0.73 0.70 0.63 0.67 0.79 0.82 0.75 0.69 0.65 0.58 0.63 0.74 0.70 0.85 0.84 1.10 1.29 1.13 0.95
0.26 0.25 0.22 0.22 0.25 0.25 0.21 0.22 0.25 0.30 0.29 0.26 0.23 0.22 0.25 0.29 0.24 0.23 0.30 0.40 0.48 0.53 0.46 0.55 0.62 0.68 0.72 0.70 0.66 0.69 0.81 0.85 0.84 0.68 0.62 0.72 0.79 0.84 0.95 1.27 1.34 1.33 1.24
0.26 0.24 0.23 0.24 0.26 0.27 0.19 0.19 0.22 0.27 0.30 0.26 0.26 0.28 0.24 0.21 0.22 0.24 0.32 0.45 0.56 0.57 0.62 0.79 0.95 1.01 0.95 0.87 0.72 0.74 0.91 0.98 0.99 0.91 0.69 0.71 0.82 0.93 1.21 1.39 1.36 1.25 1.23

GEFSMA_prec_meanprecacc_174.txt.gz
Total_Precipitation_Accumulation
1.72 1.89 1.92 2.02 1.94 2.06 1.97 1.78 1.54 1.45 1.35 1.16 1.12 1.15 1.09 1.04 1.09 1.18 1.36 1.41 1.35 1.50 1.78 1.92 1.78 1.64 1.59 1.55 1.51 1.43 1.36 1.27 1.15 1.01 0.89 0.80 0.74 0.72 0.73 0.74 0.72 0.68 0.64
2.06 2.15 2.20 2.27 2.15 2.13 2.15 2.04 1.79 1.65 1.57 1.43 1.28 1.19 1.15 1.24 1.27 1.23 1.41 1.50 1.42 1.39 1.62 1.95 2.08 2.13 2.14 2.14 1.96 1.72 1.60 1.50 1.43 1.32 1.17 1.01 0.91 0.85 0.82 0.83 0.83 0.78 0.72
2.40 2.40 2.57 2.60 2.45 2.39 2.37 2.29 2.15 1.90 1.83 1.78 1.70 1.52 1.40 1.39 1.54 1.59 1.59 1.71 1.75 1.63 1.67 1.87 2.07 2.21 2.30 2.40 2.27 2.07 1.90 1.80 1.75 1.67 1.53 1.34 1.16 1.04 0.98 0.94 0.92 0.90 0.83
2.74 2.87 2.82 2.67 2.56 2.51 2.52 2.61 2.47 2.22 2.14 2.19 2.10 1.82 1.57 1.56 1.66 1.73 1.72 1.80 1.94 1.86 1.83 1.76 1.83 1.99 2.16 2.34 2.37 2.39 2.30 2.21 2.09 1.97 1.86 1.73 1.55 1.39 1.27 1.19 1.10 1.02 0.94
3.05 3.19 3.17 2.96 2.75 2.67 2.69 2.54 2.55 2.47 2.50 2.45 2.11 1.88 1.64 1.58 1.65 1.68 1.72 1.79 1.96 2.04 2.03 1.85 1.86 2.05 2.18 2.34 2.49 2.61 2.66 2.66 2.51 2.39 2.26 2.15 2.02 1.79 1.58 1.42 1.29 1.21 1.15
3.47 3.50 3.40 3.22 3.06 2.94 2.90 2.79 2.75 2.72 2.57 2.44 2.05 1.85 1.67 1.54 1.55 1.61 1.64 1.69 1.74 1.79 1.86 1.88 1.91 1.84 1.95 2.14 2.36 2.59 2.76 2.89 2.77 2.55 2.40 2.36 2.28 2.12 1.94 1.77 1.61 1.52 1.43
3.87 3.83 3.75 3.60 3.42 3.21 3.06 2.91 2.78 2.65 2.47 2.30 2.14 1.95 1.69 1.47 1.49 1.51 1.47 1.51 1.58 1.58 1.62 1.68 1.83 1.79 1.70 1.89 1.97 2.26 2.54 2.81 2.90 2.81 2.70 2.66 2.61 2.44 2.25 2.06 1.91 1.79 1.69
4.36 4.22 4.13 3.92 3.67 3.44 3.21 3.01 2.77 2.56 2.37 2.21 2.17 2.22 1.99 1.73 1.40 1.21 1.21 1.24 1.28 1.28 1.34 1.42 1.45 1.48 1.48 1.56 1.63 1.80 2.04 2.26 2.47 2.58 2.64 2.63 2.61 2.54 2.42 2.27 2.15 2.07 2.05
4.43 4.11 3.89 3.81 3.60 3.27 3.05 2.88 2.69 2.51 2.29 2.14 2.05 2.18 2.14 1.94 1.60 1.39 1.19 1.09 1.09 1.16 1.21 1.29 1.33 1.28 1.23 1.23 1.31 1.46 1.57 1.64 1.90 2.13 2.28 2.31 2.28 2.24 2.25 2.28 2.27 2.20 2.16
4.12 3.83 3.55 3.28 3.04 2.79 2.56 2.41 2.33 2.27 2.19 2.06 2.00 1.83 1.65 1.54 1.57 1.46 1.28 1.17 1.12 1.13 1.10 1.06 1.10 1.13 1.11 1.10 1.19 1.29 1.36 1.45 1.65 1.76 1.88 1.95 1.95 1.95 1.93 1.92 1.95 1.98 2.04
3.38 3.08 2.81 2.54 2.30 2.12 1.96 1.79 1.74 1.86 1.96 1.95 1.94 1.90 1.74 1.57 1.50 1.43 1.36 1.29 1.23 1.18 1.11 1.06 1.01 1.00 0.98 0.95 0.98 1.14 1.26 1.27 1.33 1.39 1.49 1.56 1.58 1.66 1.72 1.71 1.72 1.80 1.93
2.63 2.36 2.12 1.92 1.73 1.56 1.45 1.39 1.37 1.43 1.55 1.63 1.67 1.71 1.72 1.76 1.73 1.64 1.54 1.48 1.43 1.32 1.20 1.14 1.09 1.07 1.02 0.99 1.05 1.25 1.17 1.17 1.20 1.18 1.16 1.21 1.25 1.30 1.42 1.53 1.62 1.73 1.90
1.86 1.65 1.47 1.35 1.22 1.13 1.09 1.06 1.09 1.16 1.21 1.26 1.35 1.45 1.50 1.53 1.57 1.66 1.73 1.65 1.53 1.32 1.17 1.12 1.09 1.05 1.04 1.01 1.02 1.10 1.00 1.00 1.00 1.00 1.00 1.02 1.07 1.11 1.15 1.22 1.31 1.41 1.54
1.11 0.99 0.91 0.85 0.81 0.80 0.78 0.78 0.82 0.89 0.95 0.98 1.01 1.13 1.26 1.27 1.23 1.31 1.47 1.48 1.47 1.36 1.15 1.06 1.01 0.97 0.93 0.86 0.92 0.93 0.85 0.94 0.89 0.86 0.82 0.79 0.80 0.83 0.87 0.91 0.98 1.05 1.10
0.76 0.68 0.64 0.62 0.60 0.61 0.61 0.60 0.60 0.61 0.68 0.78 0.81 0.88 0.96 0.99 0.95 0.96 1.03 1.15 1.24 1.27 1.13 0.91 0.86 0.85 0.80 0.76 0.82 0.68 0.72 0.83 0.79 0.76 0.72 0.68 0.67 0.67 0.69 0.70 0.71 0.74 0.79
0.54 0.49 0.44 0.41 0.38 0.39 0.42 0.48 0.49 0.46 0.49 0.54 0.57 0.61 0.67 0.70 0.72 0.74 0.80 0.90 1.02 1.10 1.09 0.84 0.72 0.69 0.65 0.58 0.66 0.59 0.62 0.64 0.58 0.56 0.54 0.52 0.50 0.50 0.51 0.53 0.55 0.57 0.59
0.35 0.33 0.31 0.28 0.27 0.27 0.31 0.38 0.41 0.41 0.43 0.44 0.44 0.46 0.49 0.53 0.59 0.57 0.60 0.67 0.76 0.86 0.93 0.79 0.64 0.58 0.57 0.55 0.56 0.54 0.50 0.45 0.42 0.42 0.40 0.40 0.38 0.38 0.39 0.40 0.42 0.44 0.47
0.26 0.25 0.25 0.24 0.22 0.24 0.29 0.33 0.35 0.36 0.39 0.42 0.42 0.40 0.42 0.46 0.50 0.48 0.51 0.55 0.61 0.70 0.79 0.81 0.67 0.57 0.52 0.50 0.49 0.47 0.36 0.32 0.34 0.36 0.33 0.31 0.32 0.33 0.34 0.34 0.33 0.33 0.31
0.25 0.22 0.21 0.22 0.21 0.21 0.25 0.27 0.29 0.32 0.35 0.38 0.35 0.34 0.36 0.38 0.41 0.40 0.43 0.45 0.50 0.55 0.64 0.68 0.58 0.49 0.42 0.38 0.44 0.44 0.37 0.41 0.27 0.23 0.23 0.21 0.23 0.23 0.22 0.22 0.22 0.22 0.19
0.23 0.21 0.19 0.21 0.21 0.18 0.19 0.21 0.21 0.24 0.30 0.30 0.27 0.28 0.31 0.31 0.32 0.35 0.37 0.41 0.47 0.54 0.58 0.59 0.51 0.41 0.38 0.36 0.46 0.54 0.50 0.41 0.31 0.18 0.19 0.17 0.17 0.16 0.17 0.21 0.17 0.17 0.17
0.24 0.24 0.22 0.21 0.20 0.17 0.14 0.15 0.17 0.18 0.23 0.25 0.24 0.23 0.24 0.24 0.27 0.29 0.31 0.37 0.46 0.57 0.61 0.63 0.56 0.48 0.43 0.50 0.57 0.55 0.52 0.40 0.31 0.23 0.27 0.25 0.29 0.44 0.63 0.68 0.47 0.26 0.19
0.24 0.23 0.23 0.22 0.19 0.17 0.17 0.17 0.16 0.19 0.21 0.24 0.26 0.24 0.21 0.19 0.20 0.21 0.23 0.28 0.40 0.53 0.66 0.74 0.69 0.64 0.57 0.62 0.69 0.66 0.66 0.61 0.53 0.33 0.35 0.34 0.43 0.80 1.19 1.38 0.97 0.45 0.31
0.25 0.22 0.19 0.20 0.22 0.19 0.16 0.16 0.16 0.18 0.22 0.28 0.31 0.30 0.23 0.20 0.26 0.28 0.25 0.22 0.27 0.36 0.57 0.77 0.84 0.77 0.71 0.75 0.86 0.84 0.78 0.76 0.68 0.48 0.52 0.55 0.60 0.93 1.02 1.14 1.08 0.69 0.54
0.28 0.26 0.22 0.21 0.23 0.19 0.17 0.18 0.18 0.22 0.25 0.27 0.28 0.29 0.33 0.34 0.28 0.26 0.24 0.28 0.37 0.47 0.55 0.62 0.77 0.75 0.66 0.69 0.81 0.84 0.77 0.71 0.66 0.59 0.63 0.75 0.71 0.85 0.85 1.12 1.31 1.16 0.97
0.29 0.27 0.23 0.23 0.26 0.25 0.21 0.23 0.26 0.31 0.29 0.26 0.23 0.23 0.26 0.30 0.25 0.24 0.30 0.40 0.48 0.54 0.47 0.57 0.66 0.73 0.75 0.72 0.67 0.70 0.83 0.88 0.86 0.69 0.62 0.73 0.79 0.85 0.96 1.28 1.35 1.35 1.26
0.28 0.25 0.24 0.25 0.26 0.27 0.19 0.20 0.24 0.29 0.31 0.27 0.27 0.28 0.25 0.22 0.23 0.25 0.33 0.46 0.57 0.58 0.64 0.81 0.96 1.03 0.97 0.88 0.74 0.76 0.93 1.00 1.01 0.93 0.70 0.72 0.82 0.94 1.22 1.40 1.36 1.26 1.24

GEFSMA_prec_meanprecacc_180.txt.gz
Total_Precipitation_Accumulation
1.73 1.90 1.93 2.03 1.96 2.08 1.99 1.80 1.57 1.47 1.38 1.18 1.14 1.17 1.11 1.07 1.12 1.21 1.40 1.47 1.43 1.60 1.90 2.07 1.94 1.79 1.75 1.70 1.65 1.57 1.49 1.40 1.29 1.12 0.98 0.89 0.83 0.81 0.81 0.82 0.79 0.74 0.71
2.07 2.16 2.22 2.29 2.16 2.16 2.18 2.07 1.82 1.68 1.59 1.44 1.29 1.20 1.16 1.27 1.30 1.26 1.44 1.55 1.49 1.47 1.72 2.08 2.22 2.28 2.32 2.31 2.12 1.86 1.73 1.63 1.58 1.46 1.28 1.10 1.00 0.94 0.89 0.91 0.93 0.86 0.81
2.42 2.41 2.58 2.61 2.47 2.42 2.39 2.32 2.19 1.94 1.85 1.80 1.71 1.55 1.42 1.42 1.56 1.62 1.63 1.74 1.79 1.69 1.76 1.98 2.20 2.35 2.48 2.59 2.44 2.23 2.05 1.93 1.90 1.84 1.68 1.47 1.27 1.14 1.08 1.02 1.00 0.98 0.91
2.77 2.90 2.85 2.70 2.58 2.53 2.54 2.65 2.51 2.25 2.17 2.21 2.11 1.84 1.58 1.58 1.68 1.76 1.75 1.83 1.97 1.90 1.89 1.85 1.93 2.10 2.30 2.49 2.53 2.55 2.45 2.35 2.23 2.14 2.03 1.89 1.71 1.51 1.37 1.29 1.18 1.09 1.01
3.08 3.22 3.19 2.98 2.77 2.69 2.71 2.58 2.59 2.50 2.53 2.49 2.14 1.90 1.65 1.60 1.67 1.70 1.75 1.83 2.00 2.08 2.09 1.92 1.97 2.17 2.32 2.49 2.63 2.75 2.80 2.78 2.64 2.54 2.41 2.31 2.18 1.92 1.69 1.53 1.40 1.30 1.22
3.50 3.52 3.43 3.26 3.10 2.97 2.91 2.81 2.76 2.73 2.60 2.47 2.08 1.87 1.68 1.55 1.56 1.63 1.68 1.74 1.79 1.84 1.92 1.95 1.99 1.95 2.08 2.29 2.51 2.73 2.90 3.04 2.92 2.71 2.55 2.51 2.44 2.27 2.08 1.89 1.73 1.62 1.53
3.92 3.88 3.79 3.64 3.46 3.24 3.08 2.92 2.79 2.66 2.48 2.32 2.17 1.98 1.70 1.49 1.50 1.53 1.49 1.55 1.63 1.63 1.67 1.73 1.88 1.85 1.78 1.98 2.09 2.39 2.69 2.98 3.06 2.96 2.83 2.79 2.74 2.57 2.38 2.19 2.03 1.90 1.79
4.42 4.29 4.20 3.98 3.72 3.48 3.24 3.02 2.78 2.57 2.38 2.23 2.19 2.26 2.02 1.75 1.42 1.23 1.24 1.27 1.31 1.32 1.38 1.47 1.51 1.55 1.54 1.61 1.70 1.89 2.15 2.37 2.60 2.71 2.78 2.76 2.73 2.68 2.56 2.39 2.26 2.17 2.15
4.50 4.17 3.95 3.87 3.65 3.31 3.08 2.91 2.70 2.52 2.30 2.15 2.06 2.21 2.17 1.96 1.62 1.42 1.22 1.12 1.13 1.21 1.25 1.34 1.38 1.32 1.26 1.27 1.36 1.54 1.67 1.73 1.99 2.24 2.39 2.41 2.39 2.38 2.39 2.42 2.41 2.33 2.26
4.15 3.87 3.61 3.33 3.10 2.83 2.59 2.44 2.34 2.28 2.20 2.08 2.02 1.86 1.68 1.56 1.60 1.50 1.34 1.23 1.18 1.19 1.16 1.12 1.14 1.16 1.14 1.13 1.22 1.33 1.42 1.52 1.72 1.84 1.96 2.02 2.03 2.06 2.06 2.05 2.08 2.10 2.16
3.42 3.12 2.87 2.59 2.34 2.15 1.98 1.80 1.75 1.87 1.98 1.98 1.97 1.93 1.77 1.60 1.52 1.48 1.43 1.38 1.34 1.29 1.18 1.11 1.06 1.04 1.00 0.99 1.02 1.19 1.31 1.32 1.39 1.46 1.57 1.63 1.65 1.74 1.82 1.82 1.82 1.90 2.05
2.65 2.38 2.13 1.93 1.74 1.56 1.46 1.39 1.38 1.44 1.57 1.67 1.71 1.74 1.75 1.80 1.77 1.69 1.60 1.56 1.53 1.43 1.28 1.19 1.14 1.11 1.07 1.04 1.12 1.32 1.22 1.23 1.27 1.24 1.23 1.29 1.32 1.38 1.50 1.61 1.70 1.81 1.99
1.87 1.66 1.47 1.35 1.22 1.13 1.09 1.06 1.09 1.17 1.22 1.28 1.38 1.48 1.54 1.60 1.62 1.71 1.80 1.73 1.61 1.42 1.25 1.18 1.13 1.09 1.07 1.06 1.07 1.16 1.04 1.04 1.06 1.06 1.07 1.12 1.15 1.19 1.22 1.29 1.38 1.48 1.61
1.12 0.99 0.92 0.85 0.81 0.81 0.78 0.78 0.82 0.90 0.96 0.99 1.03 1.16 1.31 1.32 1.27 1.36 1.53 1.55 1.53 1.44 1.22 1.12 1.06 1.01 0.97 0.91 0.96 0.97 0.89 0.97 0.93 0.90 0.86 0.85 0.87 0.90 0.94 0.97 1.05 1.12 1.17
0.77 0.69 0.65 0.63 0.61 0.61 0.61 0.60 0.60 0.61 0.69 0.78 0.82 0.90 1.01 1.05 1.00 1.01 1.10 1.21 1.29 1.34 1.20 0.98 0.92 0.91 0.86 0.82 0.88 0.72 0.75 0.86 0.82 0.79 0.76 0.71 0.70 0.71 0.73 0.74 0.75 0.79 0.85
0.57 0.52 0.46 0.43 0.39 0.39 0.42 0.48 0.49 0.46 0.50 0.55 0.58 0.63 0.69 0.74 0.77 0.79 0.86 0.96 1.07 1.17 1.17 0.90 0.77 0.75 0.72 0.64 0.71 0.62 0.65 0.67 0.61 0.59 0.57 0.55 0.52 0.52 0.53 0.55 0.57 0.59 0.63
0.38 0.36 0.33 0.30 0.28 0.28 0.32 0.39 0.42 0.42 0.44 0.45 0.45 0.46 0.50 0.54 0.62 0.62 0.64 0.71 0.81 0.92 1.02 0.88 0.70 0.64 0.64 0.63 0.62 0.59 0.54 0.48 0.45 0.45 0.44 0.44 0.42 0.39 0.40 0.41 0.43 0.46 0.48
0.28 0.27 0.26 0.25 0.23 0.25 0.30 0.34 0.37 0.37 0.40 0.43 0.43 0.41 0.43 0.47 0.54 0.54 0.56 0.61 0.67 0.76 0.87 0.91 0.76 0.62 0.57 0.55 0.54 0.51 0.39 0.36 0.37 0.40 0.37 0.36 0.35 0.35 0.35 0.35 0.35 0.35 0.33
0.28 0.25 0.24 0.24 0.22 0.22 0.25 0.28 0.30 0.35 0.36 0.39 0.37 0.36 0.38 0.40 0.44 0.45 0.48 0.53 0.60 0.64 0.72 0.77 0.66 0.55 0.47 0.41 0.47 0.48 0.42 0.46 0.31 0.27 0.27 0.25 0.26 0.25 0.23 0.23 0.23 0.23 0.21
0.25 0.24 0.22 0.22 0.22 0.19 0.19 0.21 0.22 0.26 0.32 0.32 0.28 0.30 0.33 0.32 0.33 0.38 0.42 0.48 0.56 0.63 0.66 0.66 0.58 0.47 0.42 0.39 0.49 0.57 0.53 0.46 0.38 0.22 0.22 0.20 0.19 0.17 0.18 0.21 0.18 0.18 0.18
0.26 0.25 0.23 0.22 0.21 0.18 0.16 0.16 0.18 0.19 0.25 0.27 0.26 0.25 0.25 0.25 0.28 0.31 0.34 0.40 0.51 0.63 0.68 0.69 0.62 0.53 0.47 0.52 0.60 0.58 0.54 0.42 0.36 0.27 0.30 0.27 0.30 0.45 0.64 0.69 0.47 0.26 0.20
0.26 0.25 0.25 0.24 0.21 0.19 0.19 0.18 0.17 0.20 0.23 0.25 0.27 0.25 0.22 0.20 0.20 0.22 0.25 0.29 0.41 0.56 0.71 0.79 0.73 0.67 0.59 0.63 0.70 0.68 0.69 0.64 0.56 0.36 0.38 0.36 0.44 0.81 1.19 1.39 0.97 0.45 0.31
0.27 0.24 0.21 0.23 0.24 0.21 0.18 0.18 0.17 0.19 0.23 0.29 0.32 0.31 0.24 0.20 0.27 0.29 0.25 0.22 0.28 0.38 0.59 0.81 0.88 0.79 0.72 0.76 0.87 0.86 0.82 0.80 0.72 0.51 0.55 0.58 0.62 0.93 1.02 1.14 1.09 0.70 0.54
0.30 0.29 0.25 0.24 0.25 0.21 0.18 0.19 0.20 0.24 0.26 0.28 0.29 0.30 0.35 0.35 0.29 0.27 0.25 0.29 0.38 0.48 0.56 0.64 0.79 0.78 0.69 0.70 0.82 0.86 0.80 0.74 0.69 0.62 0.66 0.77 0.73 0.86 0.86 1.13 1.32 1.16 0.97
0.32 0.30 0.26 0.26 0.28 0.26 0.22 0.24 0.27 0.32 0.30 0.27 0.24 0.23 0.28 0.32 0.27 0.25 0.31 0.41 0.49 0.55 0.47 0.58 0.67 0.76 0.78 0.73 0.68 0.72 0.85 0.91 0.89 0.71 0.64 0.75 0.81 0.85 0.97 1.28 1.36 1.36 1.27
0.35 0.31 0.28 0.28 0.29 0.29 0.21 0.21 0.24 0.30 0.32 0.28 0.28 0.29 0.27 0.24 0.25 0.26 0.34 0.47 0.58 0.59 0.64 0.82 0.98 1.05 1.00 0.90 0.75 0.77 0.95 1.03 1.04 0.96 0.71 0.73 0.83 0.95 1.22 1.41 1.37 1.26 1.25

GEFSMA_prec_meanprecacc_186.txt.gz
Total_Precipitation_Accumulation
1.77 1.94 1.96 2.07 2.00 2.12 2.04 1.84 1.60 1.50 1.41 1.20 1.15 1.18 1.13 1.09 1.14 1.24 1.43 1.49 1.47 1.65 1.95 2.13 2.04 1.91 1.89 1.86 1.84 1.77 1.69 1.59 1.48 1.26 1.11 1.01 0.94 0.92 0.92 0.95 0.91 0.85 0.81
2.13 2.21 2.25 2.32 2.20 2.20 2.22 2.11 1.84 1.70 1.60 1.46 1.30 1.21 1.18 1.30 1.32 1.28 1.47 1.57 1.52 1.51 1.77 2.13 2.31 2.41 2.46 2.45 2.29 2.03 1.90 1.81 1.77 1.62 1.40 1.22 1.11 1.06 1.00 1.03 1.04 0.97 0.93
2.46 2.46 2.62 2.65 2.51 2.45 2.42 2.35 2.21 1.96 1.86 1.81 1.72 1.56 1.45 1.45 1.58 1.64 1.65 1.76 1.81 1.72 1.79 2.04 2.28 2.46 2.61 2.74 2.59 2.36 2.19 2.07 2.06 1.98 1.81 1.59 1.39 1.26 1.20 1.14 1.11 1.08 1.01
2.80 2.93 2.88 2.73 2.62 2.56 2.56 2.67 2.53 2.28 2.19 2.22 2.13 1.85 1.59 1.60 1.71 1.78 1.76 1.84 1.99 1.93 1.92 1.89 1.99 2.18 2.40 2.63 2.68 2.69 2.60 2.50 2.38 2.27 2.16 2.02 1.85 1.65 1.51 1.42 1.30 1.20 1.11
3.12 3.27 3.23 3.02 2.81 2.72 2.74 2.60 2.61 2.53 2.56 2.51 2.15 1.91 1.67 1.62 1.69 1.72 1.76 1.83 2.01 2.10 2.11 1.94 2.00 2.22 2.38 2.58 2.76 2.91 2.96 2.93 2.78 2.68 2.54 2.45 2.35 2.12 1.88 1.70 1.54 1.44 1.34
3.55 3.58 3.47 3.30 3.13 2.99 2.94 2.83 2.78 2.76 2.63 2.50 2.10 1.90 1.72 1.59 1.60 1.65 1.69 1.75 1.81 1.85 1.93 1.97 2.02 1.99 2.13 2.36 2.62 2.88 3.08 3.21 3.07 2.84 2.69 2.65 2.60 2.45 2.28 2.09 1.90 1.77 1.66
3.97 3.93 3.83 3.67 3.48 3.26 3.10 2.95 2.81 2.69 2.50 2.35 2.19 2.00 1.73 1.51 1.54 1.57 1.52 1.57 1.65 1.64 1.68 1.75 1.91 1.89 1.82 2.04 2.16 2.51 2.86 3.20 3.28 3.13 2.99 2.95 2.91 2.73 2.52 2.33 2.19 2.05 1.91
4.47 4.34 4.23 4.01 3.74 3.50 3.27 3.05 2.81 2.59 2.41 2.26 2.22 2.28 2.04 1.77 1.44 1.26 1.27 1.30 1.34 1.34 1.41 1.49 1.53 1.58 1.59 1.69 1.76 1.95 2.25 2.52 2.78 2.90 2.92 2.90 2.87 2.80 2.67 2.50 2.38 2.30 2.28
4.54 4.20 3.97 3.90 3.68 3.33 3.11 2.94 2.74 2.55 2.34 2.19 2.10 2.25 2.20 1.99 1.65 1.44 1.25 1.14 1.16 1.24 1.29 1.37 1.40 1.35 1.31 1.33 1.42 1.59 1.73 1.81 2.09 2.37 2.54 2.56 2.52 2.48 2.48 2.52 2.53 2.45 2.38
4.19 3.90 3.62 3.35 3.12 2.86 2.63 2.49 2.40 2.36 2.27 2.13 2.06 1.90 1.72 1.60 1.64 1.53 1.37 1.27 1.22 1.23 1.20 1.15 1.18 1.19 1.18 1.18 1.27 1.39 1.47 1.57 1.79 1.93 2.07 2.14 2.15 2.17 2.17 2.15 2.20 2.22 2.26
3.44 3.15 2.89 2.60 2.36 2.18 2.02 1.88 1.86 1.98 2.06 2.03 2.01 1.97 1.81 1.64 1.57 1.53 1.47 1.43 1.41 1.37 1.27 1.17 1.12 1.08 1.05 1.03 1.08 1.25 1.35 1.35 1.43 1.52 1.64 1.72 1.75 1.85 1.93 1.95 1.95 2.01 2.14
2.68 2.40 2.15 1.94 1.75 1.58 1.48 1.41 1.41 1.47 1.60 1.70 1.75 1.79 1.79 1.84 1.82 1.75 1.67 1.62 1.60 1.53 1.40 1.30 1.21 1.17 1.12 1.09 1.17 1.35 1.25 1.25 1.30 1.28 1.29 1.36 1.42 1.48 1.62 1.75 1.85 1.93 2.10
1.89 1.68 1.48 1.36 1.22 1.14 1.10 1.07 1.10 1.18 1.23 1.31 1.41 1.53 1.60 1.65 1.67 1.77 1.86 1.79 1.68 1.50 1.36 1.30 1.24 1.18 1.15 1.12 1.13 1.19 1.06 1.06 1.10 1.10 1.13 1.18 1.22 1.29 1.34 1.41 1.51 1.61 1.73
1.14 1.01 0.93 0.86 0.83 0.82 0.79 0.79 0.83 0.90 0.97 1.01 1.05 1.19 1.36 1.37 1.32 1.41 1.61 1.63 1.60 1.51 1.31 1.22 1.14 1.10 1.05 0.98 1.03 1.02 0.92 1.00 0.98 0.94 0.90 0.90 0.92 0.97 1.03 1.07 1.16 1.24 1.30
0.79 0.70 0.66 0.65 0.62 0.62 0.62 0.61 0.61 0.62 0.70 0.80 0.84 0.93 1.04 1.09 1.05 1.07 1.16 1.28 1.37 1.42 1.29 1.08 1.02 0.99 0.95 0.90 0.96 0.78 0.80 0.90 0.88 0.85 0.80 0.76 0.77 0.78 0.80 0.82 0.84 0.90 0.98
0.60 0.54 0.48 0.44 0.41 0.40 0.43 0.49 0.50 0.48 0.51 0.56 0.60 0.65 0.72 0.76 0.80 0.84 0.92 1.01 1.13 1.24 1.25 0.99 0.86 0.84 0.83 0.74 0.82 0.69 0.72 0.74 0.68 0.66 0.64 0.62 0.60 0.61 0.61 0.63 0.64 0.67 0.74
0.41 0.38 0.35 0.31 0.29 0.29 0.33 0.40 0.44 0.43 0.45 0.47 0.47 0.49 0.54 0.57 0.65 0.67 0.69 0.75 0.86 0.99 1.11 0.97 0.79 0.74 0.73 0.74 0.73 0.68 0.61 0.53 0.50 0.52 0.50 0.51 0.49 0.48 0.49 0.48 0.49 0.51 0.53
0.32 0.30 0.28 0.27 0.25 0.27 0.31 0.35 0.38 0.38 0.42 0.45 0.45 0.44 0.46 0.50 0.58 0.60 0.62 0.66 0.72 0.82 0.94 0.99 0.85 0.72 0.65 0.64 0.63 0.61 0.47 0.41 0.41 0.44 0.41 0.39 0.40 0.41 0.42 0.41 0.40 0.40 0.36
0.32 0.29 0.28 0.27 0.25 0.24 0.27 0.29 0.32 0.36 0.38 0.41 0.40 0.38 0.41 0.43 0.47 0.49 0.54 0.58 0.64 0.68 0.78 0.83 0.73 0.63 0.54 0.49 0.56 0.56 0.49 0.52 0.35 0.31 0.30 0.28 0.30 0.30 0.29 0.28 0.28 0.28 0.24
0.30 0.27 0.25 0.25 0.24 0.21 0.21 0.22 0.23 0.28 0.35 0.34 0.31 0.32 0.34 0.34 0.35 0.41 0.45 0.53 0.61 0.69 0.72 0.73 0.66 0.55 0.51 0.48 0.58 0.64 0.60 0.52 0.42 0.25 0.25 0.23 0.23 0.23 0.25 0.27 0.22 0.22 0.22
0.29 0.28 0.26 0.25 0.23 0.20 0.17 0.17 0.19 0.21 0.30 0.30 0.28 0.27 0.27 0.27 0.30 0.33 0.36 0.44 0.56 0.69 0.75 0.78 0.70 0.60 0.55 0.62 0.69 0.64 0.59 0.47 0.40 0.30 0.33 0.30 0.33 0.49 0.69 0.73 0.51 0.30 0.23
0.29 0.28 0.28 0.26 0.23 0.21 0.21 0.20 0.18 0.21 0.27 0.30 0.30 0.28 0.25 0.23 0.23 0.24 0.26 0.31 0.44 0.60 0.76 0.86 0.80 0.73 0.66 0.71 0.77 0.74 0.75 0.68 0.60 0.40 0.41 0.39 0.46 0.84 1.23 1.42 1.01 0.48 0.34
0.33 0.29 0.25 0.26 0.27 0.23 0.19 0.19 0.18 0.21 0.27 0.35 0.36 0.34 0.27 0.24 0.30 0.32 0.28 0.24 0.30 0.40 0.62 0.85 0.95 0.87 0.78 0.83 0.93 0.91 0.87 0.85 0.77 0.56 0.59 0.61 0.64 0.96 1.05 1.16 1.11 0.71 0.56
0.36 0.34 0.29 0.27 0.28 0.23 0.19 0.20 0.21 0.26 0.29 0.34 0.35 0.34 0.38 0.39 0.32 0.30 0.28 0.32 0.41 0.50 0.58 0.66 0.85 0.86 0.75 0.75 0.89 0.91 0.85 0.79 0.73 0.66 0.70 0.80 0.75 0.88 0.87 1.14 1.33 1.17 0.98
0.38 0.36 0.31 0.30 0.32 0.30 0.25 0.26 0.30 0.35 0.34 0.33 0.31 0.28 0.31 0.34 0.29 0.27 0.32 0.43 0.51 0.57 0.49 0.59 0.69 0.79 0.84 0.77 0.73 0.76 0.89 0.95 0.93 0.75 0.67 0.78 0.84 0.88 0.99 1.30 1.37 1.36 1.28
0.40 0.36 0.33 0.32 0.33 0.32 0.23 0.24 0.28 0.33 0.35 0.33 0.33 0.33 0.29 0.25 0.25 0.27 0.35 0.49 0.60 0.61 0.66 0.83 1.00 1.08 1.04 0.94 0.77 0.81 1.00 1.07 1.09 1.00 0.74 0.76 0.87 0.98 1.26 1.44 1.40 1.28 1.26